Date String (YYYY-MM-DD hh:mm:ss) UTC,Instrument flags,absolute air pressure of the measurement (hPa),sample flow rate (lpm),inlet stack bypass flow (lpm),air temperature of the measurement (°C),ambient temperature measured by the external sensor (°C),aerosol sample conditioner tube jacket temperature (°C),OPC LED temperature (°C),internal box temperature (°C),relative humidity of the measurement (%),span deviation,mass concentration of particles derived from Lorenz-Mie calculation of OPC scattering (μg/m³),mass concentration of particles derived from Lorenz-Mie calculation of OPC scattering (μg/m³),mass concentration of particles derived from Lorenz-Mie calculation of OPC scattering (μg/m³)
DateTimeUTC,F1_M11,P_M11,Q1_M11,Q2_M11,T1_M11,T2_M11,T3_M11,T4_M11,T5_M11,U1_M11,ZSPAN_M11,X0_M11,X2_M11,X1_M11
2024-03-12 20:00:00,SystemResetWarning,0822.7,4.99,000.00,021.3,020.7,000.0,029.6,023.1,12.6,0000.0,0015.30,0003.33,0001.58
2024-03-12 20:01:00,SystemResetWarning,0822.8,4.99,000.00,021.3,020.7,000.0,029.7,023.1,12.3,0000.0,0014.48,0003.33,0001.59
2024-03-12 20:02:00,SystemResetWarning,0822.7,4.99,000.00,021.3,020.7,000.0,029.7,023.1,12.4,0000.0,0013.80,0003.29,0001.57
2024-03-12 20:03:00,SystemResetWarning,0822.7,5.01,000.00,021.3,020.8,000.0,029.7,023.1,12.4,0000.0,0013.72,0003.28,0001.57
2024-03-12 20:04:00,SystemResetWarning,0822.8,5.00,000.00,021.3,020.8,000.0,029.7,023.1,12.3,0000.0,0013.41,0003.28,0001.57
2024-03-12 20:05:00,SystemResetWarning,0823.0,4.99,000.00,021.3,020.8,000.0,029.7,023.2,12.3,0000.0,0012.85,0003.24,0001.57
2024-03-12 20:06:00,SystemResetWarning,0822.6,5.00,000.00,021.4,020.8,000.0,029.7,023.2,12.4,0000.0,0011.70,0003.22,0001.57
2024-03-12 20:07:00,SystemResetWarning,0822.6,5.01,000.00,021.4,020.9,000.0,029.7,023.2,12.5,0000.0,0010.88,0003.18,0001.56
2024-03-12 20:08:00,SystemResetWarning,0822.7,5.00,000.00,021.4,020.9,000.0,029.7,023.2,12.6,0000.0,0010.66,0003.13,0001.53
2024-03-12 20:09:00,SystemResetWarning,0822.6,5.00,000.00,021.4,020.9,000.0,029.7,023.2,12.4,0000.0,0010.02,0003.03,0001.51
2024-03-12 20:10:00,SystemResetWarning,0822.6,5.00,000.00,021.4,020.9,000.0,029.7,023.2,12.4,0000.0,0009.64,0003.02,0001.50
2024-03-12 20:11:00,SystemResetWarning,0822.5,5.00,000.00,021.4,020.9,000.0,029.8,023.3,12.5,0000.0,0009.39,0002.93,0001.46
2024-03-12 20:12:00,SystemResetWarning,0822.5,5.00,000.00,021.5,020.9,000.0,029.8,023.3,12.4,0000.0,0009.62,0002.93,0001.43
2024-03-12 20:13:00,SystemResetWarning,0822.4,5.00,000.00,021.5,021.0,000.0,029.8,023.3,12.4,0000.0,0010.28,0003.00,0001.43
2024-03-12 20:14:00,SystemResetWarning,0822.4,5.00,000.00,021.5,021.0,000.0,029.8,023.3,12.4,0000.0,0010.19,0003.05,0001.42
2024-03-12 20:15:00,SystemResetWarning,0822.4,4.99,000.00,021.5,021.0,000.0,029.8,023.3,12.4,0000.0,0010.25,0003.14,0001.42
2024-03-12 20:16:00,SystemResetWarning,0822.5,5.00,000.00,021.5,021.0,000.0,029.8,023.4,12.3,0000.0,0010.35,0003.14,0001.41
2024-03-12 20:17:00,SystemResetWarning,0822.4,5.00,000.00,021.5,021.0,000.0,029.8,023.4,12.3,0000.0,0010.33,0003.10,0001.41
2024-03-12 20:18:00,SystemResetWarning,0822.4,5.00,000.00,021.5,021.0,000.0,029.8,023.4,12.6,0000.0,0009.85,0003.05,0001.40
2024-03-12 20:19:00,SystemResetWarning,0822.4,5.00,000.00,021.6,021.1,000.0,029.9,023.4,12.7,0000.0,0009.98,0003.07,0001.40
2024-03-12 20:20:00,SystemResetWarning,0822.4,5.00,000.00,021.6,021.1,000.0,029.9,023.4,12.5,0000.0,0010.17,0003.16,0001.41
2024-03-12 20:21:00,SystemResetWarning,0822.4,5.00,000.00,021.6,021.1,000.0,029.9,023.4,12.7,0000.0,0010.11,0003.17,0001.41
2024-03-12 20:22:00,SystemResetWarning,0822.4,5.00,000.00,021.6,021.1,000.0,029.9,023.4,13.1,0000.0,0010.42,0003.19,0001.44
2024-03-12 20:23:00,SystemResetWarning,0822.3,4.99,000.00,021.6,021.1,000.0,029.9,023.5,12.8,0000.0,0011.30,0003.18,0001.44
2024-03-12 20:24:00,SystemResetWarning,0822.3,4.99,000.00,021.7,021.2,000.0,029.9,023.5,12.6,0000.0,0010.90,0003.14,0001.43
2024-03-12 20:25:00,SystemResetWarning,0822.3,5.00,000.00,021.7,021.2,000.0,030.0,023.5,12.5,0000.0,0011.03,0003.13,0001.42
2024-03-12 20:26:00,SystemResetWarning,0822.3,5.01,000.00,021.7,021.2,000.0,030.0,023.5,12.5,0000.0,0011.82,0003.05,0001.42
2024-03-12 20:27:00,SystemResetWarning,0822.3,5.01,000.00,021.7,021.2,000.0,030.0,023.5,12.8,0000.0,0012.63,0003.10,0001.43
2024-03-12 20:28:00,SystemResetWarning,0822.3,5.00,000.00,021.7,021.2,000.0,030.0,023.6,12.5,0000.0,0012.29,0003.13,0001.43
2024-03-12 20:29:00,SystemResetWarning,0822.2,4.99,000.00,021.7,021.2,000.0,030.0,023.6,12.6,0000.0,0012.23,0003.17,0001.44
2024-03-12 20:30:00,SystemResetWarning,0822.3,5.00,000.00,021.8,021.3,000.0,030.0,023.6,12.6,0000.0,0011.77,0003.19,0001.46
2024-03-12 20:31:00,SystemResetWarning,0822.2,5.00,000.00,021.8,021.3,000.0,030.1,023.6,12.2,0000.0,0011.74,0003.16,0001.47
2024-03-12 20:32:00,SystemResetWarning,0822.3,5.00,000.00,021.8,021.3,000.0,030.1,023.6,12.3,0000.0,0011.50,0003.15,0001.47
2024-03-12 20:33:00,SystemResetWarning,0822.3,5.01,000.00,021.8,021.3,000.0,030.1,023.6,12.2,0000.0,0011.33,0003.14,0001.46
2024-03-12 20:34:00,SystemResetWarning,0822.2,5.00,000.00,021.8,021.3,000.0,030.1,023.7,12.2,0000.0,0010.83,0003.16,0001.49
2024-03-12 20:35:00,SystemResetWarning,0822.2,5.00,000.00,021.9,021.4,000.0,030.1,023.7,12.5,0000.0,0010.69,0003.16,0001.50
2024-03-12 20:36:00,SystemResetWarning,0822.2,4.99,000.00,021.9,021.4,000.0,030.1,023.7,12.2,0000.0,0010.43,0003.15,0001.51
2024-03-12 20:37:00,SystemResetWarning,0822.2,5.00,000.00,021.9,021.4,000.0,030.1,023.7,12.2,0000.0,0010.31,0003.21,0001.52
2024-03-12 20:38:00,SystemResetWarning,0822.2,5.00,000.00,021.9,021.4,000.0,030.2,023.8,12.4,0000.0,0009.72,0003.18,0001.53
2024-03-12 20:39:00,SystemResetWarning,0822.2,5.00,000.00,021.9,021.5,000.0,030.2,023.8,12.2,0000.0,0009.98,0003.19,0001.52
2024-03-12 20:40:00,SystemResetWarning,0822.3,5.00,000.00,022.0,021.5,000.0,030.2,023.8,12.3,0000.0,0010.39,0003.17,0001.51
2024-03-12 20:41:00,SystemResetWarning,0822.3,4.99,000.00,022.0,021.5,000.0,030.2,023.8,12.2,0000.0,0010.91,0003.13,0001.50
2024-03-12 20:42:00,SystemResetWarning,0822.3,5.00,000.00,022.0,021.5,000.0,030.2,023.8,12.1,0000.0,0011.19,0003.11,0001.48
2024-03-12 20:43:00,SystemResetWarning,0822.3,4.99,000.00,022.0,021.5,000.0,030.3,023.9,12.2,0000.0,0011.22,0003.10,0001.48
2024-03-12 20:44:00,SystemResetWarning,0822.3,4.99,000.00,022.0,021.5,000.0,030.3,023.9,12.1,0000.0,0011.07,0003.05,0001.48
2024-03-12 20:45:00,SystemResetWarning,0822.3,4.99,000.00,022.0,021.6,000.0,030.3,023.9,12.0,0000.0,0010.49,0003.02,0001.45
2024-03-12 20:46:00,SystemResetWarning,0822.2,5.01,000.00,022.1,021.6,000.0,030.3,023.9,12.0,0000.0,0010.18,0003.04,0001.44
2024-03-12 20:47:00,SystemResetWarning,0822.2,5.00,000.00,022.1,021.6,000.0,030.3,023.9,12.0,0000.0,0010.17,0003.07,0001.45
2024-03-12 20:48:00,SystemResetWarning,0822.2,5.01,000.00,022.1,021.6,000.0,030.4,023.9,12.1,0000.0,0009.86,0002.98,0001.43
2024-03-12 20:49:00,SystemResetWarning,0822.2,5.01,000.00,022.1,021.6,000.0,030.4,024.0,12.1,0000.0,0009.54,0002.99,0001.43
2024-03-12 20:50:00,SystemResetWarning,0822.2,5.00,000.00,022.1,021.6,000.0,030.4,024.0,12.1,0000.0,0009.36,0003.00,0001.44
2024-03-12 20:51:00,SystemResetWarning,0822.2,4.99,000.00,022.2,021.7,000.0,030.4,024.0,12.0,0000.0,0009.04,0003.05,0001.47
2024-03-12 20:52:00,SystemResetWarning,0822.2,4.99,000.00,022.2,021.7,000.0,030.4,024.0,12.0,0000.0,0009.04,0003.07,0001.48
2024-03-12 20:53:00,SystemResetWarning,0822.2,5.01,000.00,022.2,021.7,000.0,030.4,024.0,12.2,0000.0,0008.48,0003.15,0001.50
2024-03-12 20:54:00,SystemResetWarning,0822.2,5.01,000.00,022.2,021.7,000.0,030.5,024.0,12.3,0000.0,0008.30,0003.12,0001.50
2024-03-12 20:55:00,SystemResetWarning,0822.2,4.99,000.00,022.2,021.7,000.0,030.5,024.0,12.2,0000.0,0008.65,0003.16,0001.50
2024-03-12 20:56:00,SystemResetWarning,0822.2,4.99,000.00,022.2,021.7,000.0,030.5,024.1,12.3,0000.0,0010.55,0003.17,0001.51
2024-03-12 20:57:00,SystemResetWarning,0822.2,5.01,000.00,022.2,021.7,000.0,030.5,024.1,12.4,0000.0,0012.08,0003.18,0001.52
2024-03-12 20:58:00,SystemResetWarning,0822.2,5.01,000.00,022.3,021.7,000.0,030.5,024.1,12.3,0000.0,0012.13,0003.19,0001.52
2024-03-12 20:59:00,SystemResetWarning,0822.2,5.00,000.00,022.3,021.8,000.0,030.5,024.1,12.2,0000.0,0011.87,0003.20,0001.53
